| time (UTC) | temp F | wind direction | speed MPH | gust MPH | rain 1hr in | rain 24hr in | rain mn in | humidity % | barometer mb |
| 20260904013617 | 87 | 165 | 0.0 | 1.0 | 0.00 | 0.00 | 0.00 | 59 | 1011.7 |
| 20260904013113 | 87 | 165 | 0.0 | 0.0 | 0.00 | 0.00 | 0.00 | 58 | 1011.3 |
| 20260904012608 | 87 | 165 | 0.0 | 0.0 | 0.00 | 0.00 | 0.00 | 58 | 1011.5 |
| 20260904012108 | 88 | 165 | 0.0 | 0.0 | 0.00 | 0.00 | 0.00 | 57 | 1011.1 |
| 20260904011607 | 89 | 165 | 0.0 | 0.0 | 0.00 | 0.00 | 0.00 | 56 | 1011.1 |
| 20260904011102 | 89 | 165 | 0.0 | 0.0 | 0.00 | 0.00 | 0.00 | 55 | 1011.2 |
| 20260904010558 | 90 | 165 | 0.0 | 0.0 | 0.00 | 0.00 | 0.00 | 53 | 1011.3 |
| 20260904010054 | 91 | 165 | 1.0 | 2.0 | 0.00 | 0.00 | 0.00 | 53 | 1011.1 |
| 20260904005554 | 91 | 166 | 0.0 | 1.0 | 0.00 | 0.00 | 0.00 | 52 | 1011.1 |
| 20260904005049 | 91 | 166 | 0.0 | 2.0 | 0.00 | 0.00 | 0.00 | 51 | 1011.0 |
| 20260904004545 | 92 | 166 | 0.0 | 1.0 | 0.00 | 0.00 | 0.00 | 51 | 1011.1 |
| 20260904004039 | 92 | 166 | 0.0 | 1.0 | 0.00 | 0.00 | 0.00 | 51 | 1010.9 |
| 20260904003536 | 93 | 166 | 0.0 | 0.0 | 0.00 | 0.00 | 0.00 | 49 | 1011.1 |
| 20260904003031 | 93 | 166 | 0.0 | 2.0 | 0.00 | 0.00 | 0.00 | 50 | 1011.2 |
| 20260904002527 | 93 | 167 | 0.0 | 2.0 | 0.00 | 0.00 | 0.00 | 49 | 1011.1 |
| 20260904002026 | 94 | 166 | 0.0 | 3.0 | 0.00 | 0.00 | 0.00 | 48 | 1011.1 |
| 20260904001522 | 94 | 166 | 0.0 | 3.0 | 0.00 | 0.00 | 0.00 | 48 | 1011.2 |
| 20260904001021 | 94 | 167 | 1.0 | 2.0 | 0.00 | 0.00 | 0.00 | 47 | 1011.0 |
| 20260904000521 | 94 | 167 | 2.0 | 3.0 | 0.00 | 0.00 | 0.00 | 47 | 1011.3 |
| 20260904000017 | 95 | 167 | 1.0 | 2.0 | 0.00 | 0.00 | 0.00 | 46 | 1011.1 |
| 20260903235512 | 95 | 166 | 1.0 | 2.0 | 0.00 | 0.00 | 0.00 | 46 | 1011.2 |
| 20260903235008 | 95 | 169 | 2.0 | 3.0 | 0.00 | 0.00 | 0.00 | 46 | 1011.2 |
| 20260903234503 | 95 | 176 | 2.0 | 5.0 | 0.00 | 0.00 | 0.00 | 45 | 1011.2 |
| 20260903233958 | 96 | 180 | 5.0 | 7.0 | 0.00 | 0.00 | 0.00 | 44 | 1011.2 |
| 20260903233454 | 96 | 172 | 2.0 | 5.0 | 0.00 | 0.00 | 0.00 | 44 | 1011.3 |
| 20260903232949 | 95 | 170 | 1.0 | 6.0 | 0.00 | 0.00 | 0.00 | 45 | 1011.0 |
| 20260903232445 | 96 | 162 | 4.0 | 8.0 | 0.00 | 0.00 | 0.00 | 45 | 1011.1 |
| 20260903231944 | 96 | 182 | 0.0 | 6.0 | 0.00 | 0.00 | 0.00 | 45 | 1010.9 |
| 20260903231439 | 96 | 171 | 3.0 | 6.0 | 0.00 | 0.00 | 0.00 | 45 | 1011.2 |
| 20260903230933 | 96 | 170 | 0.0 | 3.0 | 0.00 | 0.00 | 0.00 | 45 | 1010.9 |
| 20260903230429 | 96 | 170 | 5.0 | 6.0 | 0.00 | 0.00 | 0.00 | 44 | 1010.7 |
| 20260903225926 | 96 | 171 | 4.0 | 5.0 | 0.00 | 0.00 | 0.00 | 44 | 1011.0 |
| 20260903225421 | 96 | 166 | 4.0 | 7.0 | 0.00 | 0.00 | 0.00 | 44 | 1011.3 |
| 20260903224917 | 97 | 172 | 5.0 | 8.0 | 0.00 | 0.00 | 0.00 | 42 | 1011.1 |
| 20260903224413 | 96 | 170 | 2.0 | 5.0 | 0.00 | 0.00 | 0.00 | 44 | 1011.1 |
| 20260903223909 | 97 | 163 | 3.0 | 5.0 | 0.00 | 0.00 | 0.00 | 43 | 1011.2 |
| 20260903223408 | 97 | 171 | 3.0 | 3.0 | 0.00 | 0.00 | 0.00 | 44 | 1011.1 |
| 20260903222907 | 97 | 171 | 0.0 | 5.0 | 0.00 | 0.00 | 0.00 | 43 | 1011.1 |
| 20260903222403 | 96 | 171 | 4.0 | 6.0 | 0.00 | 0.00 | 0.00 | 42 | 1011.3 |
| 20260903221857 | 97 | 169 | 2.0 | 5.0 | 0.00 | 0.00 | 0.00 | 43 | 1011.2 |
| 20260903221355 | 96 | 171 | 3.0 | 5.0 | 0.00 | 0.00 | 0.00 | 43 | 1011.3 |
| 20260903220854 | 96 | 165 | 2.0 | 5.0 | 0.00 | 0.00 | 0.00 | 44 | 1011.1 |
| 20260903220348 | 96 | 164 | 2.0 | 13.0 | 0.00 | 0.00 | 0.00 | 43 | 1011.4 |
| 20260903215847 | 96 | 164 | 2.0 | 5.0 | 0.00 | 0.00 | 0.00 | 43 | 1011.4 |
| 20260903215343 | 97 | 162 | 3.0 | 6.0 | 0.00 | 0.00 | 0.00 | 44 | 1011.2 |
| 20260903214842 | 96 | 166 | 2.0 | 5.0 | 0.00 | 0.00 | 0.00 | 44 | 1011.5 |
| 20260903214338 | 96 | 166 | 3.0 | 3.0 | 0.00 | 0.00 | 0.00 | 43 | 1011.5 |
| 20260903213837 | 96 | 167 | 4.0 | 9.0 | 0.00 | 0.00 | 0.00 | 44 | 1011.7 |
| 20260903213332 | 96 | 169 | 1.0 | 6.0 | 0.00 | 0.00 | 0.00 | 45 | 1011.4 |
| 20260903212829 | 97 | 180 | 5.0 | 6.0 | 0.00 | 0.00 | 0.00 | 44 | 1011.9 |
| 20260903212325 | 96 | 159 | 4.0 | 5.0 | 0.00 | 0.00 | 0.00 | 43 | 1011.6 |
| 20260903211824 | 97 | 167 | 0.0 | 3.0 | 0.00 | 0.00 | 0.00 | 45 | 1011.5 |
| 20260903211320 | 96 | 165 | 2.0 | 5.0 | 0.00 | 0.00 | 0.00 | 44 | 1011.6 |
| 20260903210816 | 96 | 176 | 4.0 | 6.0 | 0.00 | 0.00 | 0.00 | 44 | 1011.7 |
| 20260903210311 | 97 | 165 | 4.0 | 8.0 | 0.00 | 0.00 | 0.00 | 44 | 1012.0 |
| 20260903205810 | 96 | 168 | 2.0 | 5.0 | 0.00 | 0.00 | 0.00 | 46 | 1011.5 |
| 20260903205310 | 96 | 165 | 1.0 | 3.0 | 0.00 | 0.00 | 0.00 | 45 | 1011.6 |
| 20260903204806 | 96 | 171 | 3.0 | 10.0 | 0.00 | 0.00 | 0.00 | 46 | 1012.0 |
| 20260903204302 | 96 | 167 | 2.0 | 5.0 | 0.00 | 0.00 | 0.00 | 45 | 1012.1 |
| 20260903203757 | 96 | 158 | 1.0 | 6.0 | 0.00 | 0.00 | 0.00 | 45 | 1012.0 |
| 20260903203253 | 96 | 174 | 2.0 | 2.0 | 0.00 | 0.00 | 0.00 | 45 | 1012.0 |
| 20260903202751 | 96 | 170 | 3.0 | 5.0 | 0.00 | 0.00 | 0.00 | 44 | 1012.0 |
| 20260903202248 | 96 | 166 | 3.0 | 6.0 | 0.00 | 0.00 | 0.00 | 44 | 1012.2 |
| 20260903201747 | 97 | 165 | 2.0 | 5.0 | 0.00 | 0.00 | 0.00 | 45 | 1012.0 |
| 20260903201243 | 96 | 168 | 3.0 | 5.0 | 0.00 | 0.00 | 0.00 | 46 | 1012.0 |
| 20260903200741 | 96 | 175 | 4.0 | 6.0 | 0.00 | 0.00 | 0.00 | 45 | 1012.0 |
| 20260903200237 | 95 | 185 | 2.0 | 8.0 | 0.00 | 0.00 | 0.00 | 46 | 1012.2 |
| 20260903195732 | 95 | 150 | 4.0 | 7.0 | 0.00 | 0.00 | 0.00 | 45 | 1012.4 |
| 20260903195228 | 96 | 166 | 1.0 | 3.0 | 0.00 | 0.00 | 0.00 | 45 | 1012.3 |
| 20260903194728 | 95 | 178 | 3.0 | 9.0 | 0.00 | 0.00 | 0.00 | 46 | 1012.5 |
| 20260903194224 | 95 | 164 | 5.0 | 7.0 | 0.00 | 0.00 | 0.00 | 45 | 1012.5 |
| 20260903193719 | 95 | 175 | 4.0 | 6.0 | 0.00 | 0.00 | 0.00 | 47 | 1012.5 |
| 20260903193214 | 95 | 216 | 6.0 | 9.0 | 0.00 | 0.00 | 0.00 | 46 | 1012.6 |
| 20260903192711 | 95 | 185 | 5.0 | 14.0 | 0.00 | 0.00 | 0.00 | 45 | 1012.5 |
| 20260903192206 | 96 | 153 | 3.0 | 7.0 | 0.00 | 0.00 | 0.00 | 46 | 1012.8 |
| 20260903191702 | 96 | 158 | 1.0 | 5.0 | 0.00 | 0.00 | 0.00 | 46 | 1012.5 |
| 20260903191201 | 96 | 271 | 2.0 | 6.0 | 0.00 | 0.00 | 0.00 | 46 | 1012.6 |
| 20260903190656 | 94 | 164 | 3.0 | 7.0 | 0.00 | 0.00 | 0.00 | 48 | 1012.7 |
| 20260903190151 | 94 | 166 | 3.0 | 5.0 | 0.00 | 0.00 | 0.00 | 48 | 1012.9 |
| 20260903185646 | 95 | 179 | 5.0 | 10.0 | 0.00 | 0.00 | 0.00 | 48 | 1012.9 |
| 20260903185141 | 93 | 167 | 1.0 | 3.0 | 0.00 | 0.00 | 0.00 | 48 | 1012.9 |
| 20260903184638 | 94 | 170 | 2.0 | 3.0 | 0.00 | 0.00 | 0.00 | 47 | 1013.0 |
| 20260903184133 | 93 | 173 | 3.0 | 7.0 | 0.00 | 0.00 | 0.00 | 47 | 1012.9 |
| 20260903183631 | 93 | 170 | 5.0 | 8.0 | 0.00 | 0.00 | 0.00 | 48 | 1013.1 |
| 20260903183127 | 93 | 167 | 4.0 | 6.0 | 0.00 | 0.00 | 0.00 | 49 | 1013.0 |
| 20260903182626 | 94 | 174 | 2.0 | 11.0 | 0.00 | 0.00 | 0.00 | 49 | 1013.1 |
| 20260903182122 | 92 | 182 | 3.0 | 6.0 | 0.00 | 0.00 | 0.00 | 51 | 1013.2 |
| 20260903181620 | 93 | 154 | 2.0 | 7.0 | 0.00 | 0.00 | 0.00 | 50 | 1013.4 |
| 20260903181114 | 92 | 172 | 0.0 | 7.0 | 0.00 | 0.00 | 0.00 | 50 | 1013.1 |
| 20260903180610 | 92 | 173 | 1.0 | 3.0 | 0.00 | 0.00 | 0.00 | 50 | 1013.4 |
| 20260903180104 | 92 | 158 | 3.0 | 9.0 | 0.00 | 0.00 | 0.00 | 51 | 1013.5 |
| 20260903175604 | 93 | 182 | 3.0 | 6.0 | 0.00 | 0.00 | 0.00 | 51 | 1013.4 |
| 20260903175103 | 92 | 173 | 1.0 | 2.0 | 0.00 | 0.00 | 0.00 | 48 | 1013.7 |
| 20260903174558 | 92 | 195 | 3.0 | 5.0 | 0.00 | 0.00 | 0.00 | 50 | 1013.6 |
| 20260903174052 | 91 | 160 | 1.0 | 3.0 | 0.00 | 0.00 | 0.00 | 50 | 1013.6 |
| 20260903173547 | 91 | 155 | 3.0 | 6.0 | 0.00 | 0.00 | 0.00 | 51 | 1013.8 |
| 20260903173044 | 92 | 163 | 3.0 | 7.0 | 0.00 | 0.00 | 0.00 | 51 | 1013.7 |
| 20260903172539 | 91 | 158 | 3.0 | 6.0 | 0.00 | 0.00 | 0.00 | 52 | 1013.7 |
| 20260903172035 | 92 | 169 | 2.0 | 5.0 | 0.00 | 0.00 | 0.00 | 53 | 1013.9 |
| 20260903171529 | 91 | 170 | 4.0 | 7.0 | 0.00 | 0.00 | 0.00 | 54 | 1014.1 |
| 20260903171024 | 91 | 156 | 3.0 | 5.0 | 0.00 | 0.00 | 0.00 | 54 | 1014.1 |
| 20260903170523 | 91 | 174 | 2.0 | 6.0 | 0.00 | 0.00 | 0.00 | 54 | 1014.1 |
| 20260903170019 | 91 | 171 | 3.0 | 5.0 | 0.00 | 0.00 | 0.00 | 54 | 1014.2 |
| 20260903165511 | 91 | 156 | 3.0 | 6.0 | 0.00 | 0.00 | 0.00 | 55 | 1014.3 |
| 20260903165007 | 91 | 167 | 3.0 | 6.0 | 0.00 | 0.00 | 0.00 | 55 | 1014.2 |
| 20260903164507 | 91 | 165 | 3.0 | 7.0 | 0.00 | 0.00 | 0.00 | 56 | 1014.4 |
| 20260903164002 | 91 | 160 | 4.0 | 5.0 | 0.00 | 0.00 | 0.00 | 57 | 1014.2 |
| 20260903163456 | 90 | 166 | 2.0 | 7.0 | 0.00 | 0.00 | 0.00 | 56 | 1014.2 |
| 20260903162952 | 90 | 173 | 3.0 | 6.0 | 0.00 | 0.00 | 0.00 | 56 | 1014.2 |
| 20260903162449 | 89 | 166 | 1.0 | 2.0 | 0.00 | 0.00 | 0.00 | 57 | 1014.3 |
| 20260903161944 | 89 | 166 | 2.0 | 6.0 | 0.00 | 0.00 | 0.00 | 57 | 1014.4 |
| 20260903161434 | 89 | 169 | 3.0 | 8.0 | 0.00 | 0.00 | 0.00 | 58 | 1014.4 |
| 20260903160930 | 89 | 163 | 1.0 | 5.0 | 0.00 | 0.00 | 0.00 | 58 | 1014.4 |
| 20260903160429 | 89 | 185 | 3.0 | 5.0 | 0.00 | 0.00 | 0.00 | 59 | 1014.4 |
| 20260903155928 | 88 | 161 | 2.0 | 3.0 | 0.00 | 0.00 | 0.00 | 59 | 1014.4 |
| 20260903155423 | 88 | 187 | 6.0 | 7.0 | 0.00 | 0.00 | 0.00 | 61 | 1014.6 |
| 20260903154919 | 88 | 168 | 3.0 | 5.0 | 0.00 | 0.00 | 0.00 | 61 | 1014.6 |
| 20260903154414 | 87 | 169 | 2.0 | 3.0 | 0.00 | 0.00 | 0.00 | 61 | 1014.3 |
| 20260903153909 | 87 | 148 | 4.0 | 7.0 | 0.00 | 0.00 | 0.00 | 62 | 1014.6 |
| 20260903153404 | 87 | 171 | 6.0 | 8.0 | 0.00 | 0.00 | 0.00 | 62 | 1014.4 |
| 20260903152901 | 87 | 166 | 1.0 | 5.0 | 0.00 | 0.00 | 0.00 | 64 | 1014.6 |
| 20260903152356 | 87 | 164 | 2.0 | 6.0 | 0.00 | 0.00 | 0.00 | 64 | 1014.4 |
| 20260903151852 | 86 | 172 | 1.0 | 3.0 | 0.00 | 0.00 | 0.00 | 65 | 1014.6 |
| 20260903151347 | 86 | 173 | 1.0 | 7.0 | 0.00 | 0.00 | 0.00 | 64 | 1014.5 |
| 20260903150846 | 85 | 163 | 4.0 | 7.0 | 0.00 | 0.00 | 0.00 | 65 | 1014.6 |
| 20260903150341 | 85 | 170 | 5.0 | 7.0 | 0.00 | 0.00 | 0.00 | 65 | 1014.5 |
| 20260903145836 | 85 | 217 | 3.0 | 7.0 | 0.00 | 0.00 | 0.00 | 66 | 1014.5 |
| 20260903145331 | 85 | 170 | 3.0 | 6.0 | 0.00 | 0.00 | 0.00 | 66 | 1014.4 |
| 20260903144830 | 84 | 179 | 3.0 | 7.0 | 0.00 | 0.00 | 0.00 | 66 | 1014.4 |
| 20260903144325 | 84 | 183 | 1.0 | 2.0 | 0.00 | 0.00 | 0.00 | 68 | 1014.4 |
| 20260903143816 | 84 | 159 | 3.0 | 3.0 | 0.00 | 0.00 | 0.00 | 68 | 1014.5 |
| 20260903143312 | 84 | 178 | 2.0 | 6.0 | 0.00 | 0.00 | 0.00 | 68 | 1014.5 |
| 20260903142808 | 83 | 177 | 4.0 | 6.0 | 0.00 | 0.00 | 0.00 | 69 | 1014.6 |
| 20260903142306 | 83 | 161 | 3.0 | 5.0 | 0.00 | 0.00 | 0.00 | 69 | 1014.7 |
| 20260903141759 | 83 | 146 | 3.0 | 3.0 | 0.00 | 0.00 | 0.00 | 70 | 1014.7 |
| 20260903141255 | 82 | 186 | 1.0 | 3.0 | 0.00 | 0.00 | 0.00 | 71 | 1014.5 |
| 20260903140754 | 82 | 164 | 1.0 | 3.0 | 0.00 | 0.00 | 0.00 | 71 | 1014.8 |
| 20260903140249 | 82 | 166 | 2.0 | 3.0 | 0.00 | 0.00 | 0.00 | 71 | 1014.7 |
| 20260903135745 | 81 | 166 | 2.0 | 3.0 | 0.00 | 0.00 | 0.00 | 72 | 1014.7 |
| 20260903135240 | 81 | 166 | 2.0 | 3.0 | 0.00 | 0.00 | 0.00 | 74 | 1014.5 |
| 20260903134739 | 80 | 166 | 0.0 | 0.0 | 0.00 | 0.00 | 0.00 | 75 | 1014.7 |
| 20260903134235 | 80 | 166 | 0.0 | 1.0 | 0.00 | 0.00 | 0.00 | 76 | 1014.7 |
| 20260903133732 | 79 | 166 | 0.0 | 0.0 | 0.00 | 0.00 | 0.00 | 77 | 1014.6 |
| 20260903133229 | 78 | 166 | 0.0 | 0.0 | 0.00 | 0.00 | 0.00 | 78 | 1014.7 |
| 20260903132723 | 78 | 166 | 0.0 | 2.0 | 0.00 | 0.00 | 0.00 | 78 | 1014.8 |
| 20260903132218 | 78 | 166 | 1.0 | 2.0 | 0.00 | 0.00 | 0.00 | 78 | 1014.7 |
| 20260903131713 | 78 | 166 | 0.0 | 0.0 | 0.00 | 0.00 | 0.00 | 78 | 1014.7 |
| 20260903131213 | 77 | 166 | 0.0 | 0.0 | 0.00 | 0.00 | 0.00 | 80 | 1014.8 |
| 20260903130708 | 77 | 166 | 0.0 | 0.0 | 0.00 | 0.00 | 0.00 | 80 | 1014.5 |
| 20260903130202 | 76 | 166 | 0.0 | 1.0 | 0.00 | 0.00 | 0.00 | 81 | 1014.6 |
| 20260903125700 | 76 | 166 | 0.0 | 0.0 | 0.00 | 0.00 | 0.00 | 82 | 1014.6 |
| 20260903125155 | 75 | 166 | 0.0 | 0.0 | 0.00 | 0.00 | 0.00 | 82 | 1014.5 |
| 20260903124650 | 75 | 166 | 0.0 | 0.0 | 0.00 | 0.00 | 0.00 | 83 | 1014.5 |
| 20260903124149 | 75 | 166 | 0.0 | 0.0 | 0.00 | 0.00 | 0.00 | 83 | 1014.8 |
| 20260903123649 | 75 | 166 | 0.0 | 0.0 | 0.00 | 0.00 | 0.00 | 83 | 1014.5 |
| 20260903123148 | 75 | 166 | 0.0 | 0.0 | 0.00 | 0.00 | 0.00 | 82 | 1014.3 |
| 20260903122642 | 75 | 166 | 0.0 | 0.0 | 0.00 | 0.00 | 0.00 | 83 | 1014.4 |
| 20260903122137 | 75 | 167 | 0.0 | 0.0 | 0.00 | 0.00 | 0.00 | 82 | 1014.4 |
| 20260903121636 | 75 | 166 | 0.0 | 0.0 | 0.00 | 0.00 | 0.00 | 82 | 1014.5 |
| 20260903121132 | 75 | 166 | 0.0 | 0.0 | 0.00 | 0.00 | 0.00 | 82 | 1014.3 |
| 20260903120631 | 75 | 166 | 0.0 | 0.0 | 0.00 | 0.00 | 0.00 | 83 | 1014.3 |
| 20260903120125 | 75 | 166 | 0.0 | 0.0 | 0.00 | 0.00 | 0.00 | 82 | 1014.4 |
| 20260903115623 | 75 | 166 | 0.0 | 0.0 | 0.00 | 0.00 | 0.00 | 82 | 1014.2 |
| 20260903115119 | 75 | 167 | 0.0 | 0.0 | 0.00 | 0.00 | 0.00 | 81 | 1014.2 |
| 20260903114614 | 75 | 166 | 0.0 | 0.0 | 0.00 | 0.00 | 0.00 | 81 | 1014.1 |
| 20260903114110 | 75 | 166 | 0.0 | 0.0 | 0.00 | 0.00 | 0.00 | 81 | 1013.9 |
| 20260903113605 | 75 | 167 | 0.0 | 0.0 | 0.00 | 0.00 | 0.00 | 81 | 1013.9 |
| 20260903113101 | 75 | 166 | 0.0 | 0.0 | 0.00 | 0.00 | 0.00 | 81 | 1014.0 |
| 20260903112556 | 75 | 167 | 0.0 | 0.0 | 0.00 | 0.00 | 0.00 | 81 | 1014.1 |
| 20260903112051 | 75 | 167 | 0.0 | 0.0 | 0.00 | 0.00 | 0.00 | 81 | 1013.9 |
| 20260903111549 | 75 | 166 | 0.0 | 0.0 | 0.00 | 0.00 | 0.00 | 81 | 1014.0 |
| 20260903111040 | 75 | 166 | 0.0 | 0.0 | 0.00 | 0.00 | 0.00 | 80 | 1013.9 |
| 20260903110535 | 75 | 166 | 0.0 | 0.0 | 0.00 | 0.00 | 0.00 | 80 | 1013.8 |
| 20260903110031 | 76 | 166 | 0.0 | 0.0 | 0.00 | 0.00 | 0.00 | 79 | 1013.9 |
| 20260903105525 | 76 | 166 | 0.0 | 0.0 | 0.00 | 0.00 | 0.00 | 79 | 1013.7 |
| 20260903105020 | 76 | 166 | 0.0 | 0.0 | 0.00 | 0.00 | 0.00 | 78 | 1013.8 |
| 20260903104514 | 76 | 166 | 0.0 | 0.0 | 0.00 | 0.00 | 0.00 | 78 | 1013.5 |
| 20260903104010 | 77 | 166 | 0.0 | 0.0 | 0.00 | 0.00 | 0.00 | 78 | 1013.6 |
| 20260903103506 | 77 | 166 | 0.0 | 0.0 | 0.00 | 0.00 | 0.00 | 77 | 1013.6 |
| 20260903103002 | 77 | 166 | 0.0 | 0.0 | 0.00 | 0.00 | 0.00 | 77 | 1013.5 |
| 20260903102457 | 77 | 166 | 0.0 | 0.0 | 0.00 | 0.00 | 0.00 | 76 | 1013.7 |
| 20260903101955 | 77 | 166 | 0.0 | 0.0 | 0.00 | 0.00 | 0.00 | 76 | 1013.5 |
| 20260903101450 | 77 | 166 | 0.0 | 0.0 | 0.00 | 0.00 | 0.00 | 75 | 1013.6 |
| 20260903100946 | 78 | 166 | 0.0 | 0.0 | 0.00 | 0.00 | 0.00 | 75 | 1013.3 |
| 20260903100441 | 78 | 166 | 0.0 | 0.0 | 0.00 | 0.00 | 0.00 | 75 | 1013.3 |
| 20260903095938 | 78 | 166 | 0.0 | 0.0 | 0.00 | 0.00 | 0.00 | 75 | 1013.5 |
| 20260903095433 | 78 | 166 | 0.0 | 0.0 | 0.00 | 0.00 | 0.00 | 75 | 1013.4 |
| 20260903094927 | 77 | 166 | 0.0 | 0.0 | 0.00 | 0.00 | 0.00 | 76 | 1013.6 |
| 20260903094421 | 77 | 166 | 0.0 | 0.0 | 0.00 | 0.00 | 0.00 | 76 | 1013.3 |
| 20260903093917 | 77 | 166 | 0.0 | 0.0 | 0.00 | 0.00 | 0.00 | 77 | 1013.3 |
| 20260903093412 | 77 | 166 | 0.0 | 0.0 | 0.00 | 0.00 | 0.00 | 78 | 1013.3 |
| 20260903092908 | 76 | 166 | 0.0 | 0.0 | 0.00 | 0.00 | 0.00 | 79 | 1013.3 |
| 20260903092407 | 76 | 166 | 0.0 | 0.0 | 0.00 | 0.00 | 0.00 | 79 | 1013.4 |
| 20260903091906 | 77 | 166 | 0.0 | 0.0 | 0.00 | 0.00 | 0.00 | 78 | 1013.3 |
| 20260903091359 | 76 | 166 | 0.0 | 0.0 | 0.00 | 0.00 | 0.00 | 78 | 1013.3 |
| 20260903090854 | 76 | 166 | 0.0 | 0.0 | 0.00 | 0.00 | 0.00 | 79 | 1013.7 |
| 20260903090350 | 76 | 166 | 0.0 | 0.0 | 0.00 | 0.00 | 0.00 | 79 | 1013.4 |
| 20260903085848 | 76 | 166 | 0.0 | 0.0 | 0.00 | 0.00 | 0.00 | 79 | 1013.3 |
| 20260903085341 | 76 | 166 | 0.0 | 0.0 | 0.00 | 0.00 | 0.00 | 80 | 1013.5 |
| 20260903084841 | 76 | 166 | 0.0 | 0.0 | 0.00 | 0.00 | 0.00 | 81 | 1013.4 |
| 20260903084339 | 75 | 166 | 0.0 | 0.0 | 0.00 | 0.00 | 0.00 | 83 | 1013.5 |
| 20260903083835 | 75 | 166 | 0.0 | 0.0 | 0.00 | 0.00 | 0.00 | 84 | 1013.3 |
| 20260903083331 | 74 | 166 | 0.0 | 0.0 | 0.00 | 0.00 | 0.00 | 85 | 1013.6 |
| 20260903082829 | 74 | 166 | 0.0 | 0.0 | 0.00 | 0.00 | 0.00 | 87 | 1013.3 |
| 20260903082325 | 73 | 166 | 0.0 | 0.0 | 0.00 | 0.00 | 0.00 | 89 | 1013.4 |
| 20260903081820 | 73 | 166 | 0.0 | 0.0 | 0.00 | 0.00 | 0.00 | 89 | 1013.5 |
| 20260903081315 | 73 | 166 | 0.0 | 0.0 | 0.00 | 0.00 | 0.00 | 90 | 1013.6 |
| 20260903080813 | 73 | 166 | 0.0 | 0.0 | 0.00 | 0.00 | 0.00 | 90 | 1013.2 |
| 20260903080310 | 74 | 166 | 0.0 | 0.0 | 0.00 | 0.00 | 0.00 | 90 | 1013.2 |
| 20260903075809 | 74 | 166 | 0.0 | 0.0 | 0.00 | 0.00 | 0.00 | 90 | 1013.4 |
| 20260903075306 | 73 | 166 | 0.0 | 0.0 | 0.00 | 0.00 | 0.00 | 90 | 1013.3 |
| 20260903074803 | 73 | 166 | 0.0 | 0.0 | 0.00 | 0.00 | 0.00 | 90 | 1013.4 |
| 20260903074258 | 73 | 166 | 0.0 | 0.0 | 0.00 | 0.00 | 0.00 | 91 | 1013.2 |
| 20260903073754 | 73 | 166 | 0.0 | 0.0 | 0.00 | 0.00 | 0.00 | 92 | 1013.2 |
| 20260903073249 | 74 | 166 | 0.0 | 0.0 | 0.00 | 0.00 | 0.00 | 92 | 1013.4 |
| 20260903072745 | 74 | 166 | 0.0 | 0.0 | 0.00 | 0.00 | 0.00 | 92 | 1013.5 |
| 20260903072241 | 74 | 166 | 0.0 | 0.0 | 0.00 | 0.00 | 0.00 | 92 | 1013.5 |
| 20260903071737 | 74 | 166 | 0.0 | 0.0 | 0.00 | 0.00 | 0.00 | 93 | 1013.5 |
| 20260903071232 | 74 | 166 | 0.0 | 0.0 | 0.00 | 0.00 | 0.00 | 93 | 1013.6 |
| 20260903070732 | 74 | 166 | 0.0 | 0.0 | 0.00 | 0.00 | 0.00 | 92 | 1013.2 |
| 20260903070228 | 74 | 166 | 0.0 | 0.0 | 0.00 | 0.00 | 0.00 | 92 | 1013.6 |
| 20260903065723 | 74 | 166 | 0.0 | 0.0 | 0.00 | 0.00 | 0.00 | 92 | 1013.4 |
| 20260903065222 | 74 | 166 | 0.0 | 0.0 | 0.00 | 0.00 | 0.00 | 92 | 1013.4 |
| 20260903064721 | 74 | 166 | 0.0 | 0.0 | 0.00 | 0.00 | 0.00 | 92 | 1013.7 |
| 20260903064216 | 75 | 166 | 0.0 | 0.0 | 0.00 | 0.00 | 0.00 | 92 | 1013.5 |
| 20260903063713 | 75 | 166 | 0.0 | 0.0 | 0.00 | 0.00 | 0.00 | 92 | 1013.3 |
| 20260903063202 | 75 | 166 | 0.0 | 0.0 | 0.00 | 0.00 | 0.00 | 91 | 1013.4 |
| 20260903062657 | 75 | 166 | 0.0 | 0.0 | 0.00 | 0.00 | 0.00 | 91 | 1013.4 |
| 20260903062152 | 75 | 166 | 0.0 | 0.0 | 0.00 | 0.00 | 0.00 | 91 | 1013.2 |
| 20260903061648 | 75 | 166 | 0.0 | 0.0 | 0.00 | 0.00 | 0.00 | 91 | 1013.4 |
| 20260903061146 | 75 | 166 | 0.0 | 0.0 | 0.00 | 0.00 | 0.00 | 91 | 1013.3 |
| 20260903060642 | 75 | 166 | 0.0 | 0.0 | 0.00 | 0.00 | 0.00 | 90 | 1013.4 |
| 20260903060137 | 75 | 166 | 0.0 | 0.0 | 0.00 | 0.00 | 0.00 | 90 | 1013.1 |
| 20260903055634 | 75 | 166 | 0.0 | 0.0 | 0.00 | 0.00 | 0.00 | 90 | 1013.3 |
| 20260903055133 | 75 | 166 | 0.0 | 0.0 | 0.00 | 0.00 | 0.00 | 90 | 1013.3 |
| 20260903054628 | 76 | 166 | 0.0 | 0.0 | 0.00 | 0.00 | 0.00 | 90 | 1013.5 |
| 20260903054124 | 76 | 166 | 0.0 | 0.0 | 0.00 | 0.00 | 0.00 | 89 | 1013.3 |
| 20260903053620 | 76 | 166 | 0.0 | 0.0 | 0.00 | 0.00 | 0.00 | 89 | 1013.4 |
| 20260903053115 | 76 | 166 | 0.0 | 0.0 | 0.00 | 0.00 | 0.00 | 89 | 1013.3 |
| 20260903052611 | 76 | 166 | 0.0 | 0.0 | 0.00 | 0.00 | 0.00 | 89 | 1013.3 |
| 20260903052107 | 76 | 166 | 0.0 | 0.0 | 0.00 | 0.00 | 0.00 | 89 | 1013.1 |
| 20260903051607 | 77 | 166 | 0.0 | 0.0 | 0.00 | 0.00 | 0.00 | 88 | 1013.1 |
| 20260903051102 | 77 | 166 | 0.0 | 0.0 | 0.00 | 0.00 | 0.00 | 88 | 1013.3 |
| 20260903050602 | 77 | 166 | 0.0 | 0.0 | 0.00 | 0.00 | 0.00 | 88 | 1013.4 |
| 20260903050057 | 77 | 166 | 0.0 | 0.0 | 0.00 | 0.00 | 0.00 | 87 | 1013.1 |
| 20260903045556 | 77 | 166 | 0.0 | 0.0 | 0.00 | 0.00 | 0.00 | 87 | 1013.1 |
| 20260903045053 | 77 | 166 | 0.0 | 0.0 | 0.00 | 0.00 | 0.00 | 86 | 1013.2 |
| 20260903044549 | 77 | 166 | 0.0 | 0.0 | 0.00 | 0.00 | 0.00 | 86 | 1013.3 |
| 20260903044044 | 77 | 166 | 0.0 | 0.0 | 0.00 | 0.00 | 0.00 | 86 | 1013.2 |
| 20260903043540 | 78 | 166 | 0.0 | 0.0 | 0.00 | 0.00 | 0.00 | 86 | 1013.4 |
| 20260903043039 | 78 | 166 | 0.0 | 0.0 | 0.00 | 0.00 | 0.00 | 86 | 1013.2 |
| 20260903042534 | 78 | 166 | 0.0 | 0.0 | 0.00 | 0.00 | 0.00 | 85 | 1013.2 |
| 20260903042029 | 78 | 166 | 0.0 | 0.0 | 0.00 | 0.00 | 0.00 | 85 | 1013.4 |
| 20260903041526 | 78 | 166 | 0.0 | 0.0 | 0.00 | 0.00 | 0.00 | 85 | 1013.4 |
| 20260903041021 | 78 | 166 | 0.0 | 0.0 | 0.00 | 0.00 | 0.00 | 84 | 1013.3 |
| 20260903040520 | 79 | 166 | 0.0 | 0.0 | 0.00 | 0.00 | 0.00 | 84 | 1013.6 |
| 20260903040017 | 79 | 166 | 0.0 | 0.0 | 0.00 | 0.00 | 0.00 | 84 | 1013.4 |
| 20260903035512 | 79 | 166 | 0.0 | 0.0 | 0.00 | 0.00 | 0.00 | 83 | 1013.2 |
| 20260903035008 | 79 | 166 | 0.0 | 0.0 | 0.00 | 0.00 | 0.00 | 83 | 1013.4 |
| 20260903034508 | 79 | 166 | 0.0 | 0.0 | 0.00 | 0.00 | 0.00 | 82 | 1013.6 |
| 20260903034002 | 79 | 166 | 0.0 | 0.0 | 0.00 | 0.00 | 0.00 | 82 | 1013.4 |
| 20260903033457 | 80 | 166 | 0.0 | 0.0 | 0.00 | 0.00 | 0.00 | 82 | 1013.4 |
| 20260903032952 | 80 | 166 | 0.0 | 0.0 | 0.00 | 0.00 | 0.00 | 81 | 1013.6 |
| 20260903032448 | 80 | 166 | 0.0 | 0.0 | 0.00 | 0.00 | 0.00 | 81 | 1013.4 |
| 20260903031943 | 80 | 166 | 0.0 | 0.0 | 0.00 | 0.00 | 0.00 | 81 | 1013.3 |
| 20260903031437 | 80 | 166 | 0.0 | 0.0 | 0.00 | 0.00 | 0.00 | 80 | 1013.3 |
| 20260903030932 | 80 | 166 | 0.0 | 0.0 | 0.00 | 0.00 | 0.00 | 79 | 1013.3 |
| 20260903030428 | 81 | 166 | 0.0 | 0.0 | 0.00 | 0.00 | 0.00 | 78 | 1013.5 |
| 20260903025923 | 81 | 166 | 0.0 | 0.0 | 0.00 | 0.00 | 0.00 | 78 | 1013.4 |
| 20260903025414 | 81 | 166 | 0.0 | 0.0 | 0.00 | 0.00 | 0.00 | 77 | 1013.5 |
| 20260903024909 | 82 | 166 | 0.0 | 0.0 | 0.00 | 0.00 | 0.00 | 76 | 1013.4 |
| 20260903024407 | 82 | 166 | 0.0 | 0.0 | 0.00 | 0.00 | 0.00 | 75 | 1013.5 |
| 20260903023857 | 82 | 166 | 0.0 | 0.0 | 0.00 | 0.00 | 0.00 | 74 | 1013.5 |
| 20260903023353 | 83 | 166 | 0.0 | 0.0 | 0.00 | 0.00 | 0.00 | 74 | 1013.5 |
| 20260903022848 | 83 | 166 | 0.0 | 0.0 | 0.00 | 0.00 | 0.00 | 72 | 1013.3 |
| 20260903022347 | 83 | 166 | 0.0 | 0.0 | 0.00 | 0.00 | 0.00 | 71 | 1013.3 |
| 20260903021846 | 84 | 166 | 0.0 | 0.0 | 0.00 | 0.00 | 0.00 | 70 | 1013.3 |
| 20260903021342 | 84 | 166 | 0.0 | 0.0 | 0.00 | 0.00 | 0.00 | 69 | 1013.5 |
| 20260903020841 | 84 | 166 | 0.0 | 0.0 | 0.00 | 0.00 | 0.00 | 68 | 1013.1 |
| 20260903020336 | 85 | 166 | 0.0 | 0.0 | 0.00 | 0.00 | 0.00 | 67 | 1012.9 |
| 20260903015831 | 85 | 166 | 0.0 | 0.0 | 0.00 | 0.00 | 0.00 | 66 | 1012.8 |
| 20260903015327 | 85 | 166 | 0.0 | 0.0 | 0.00 | 0.00 | 0.00 | 65 | 1012.9 |
| 20260903014822 | 86 | 166 | 0.0 | 0.0 | 0.00 | 0.00 | 0.00 | 65 | 1012.9 |
| 20260903014321 | 86 | 166 | 0.0 | 0.0 | 0.00 | 0.00 | 0.00 | 64 | 1012.7 |
| 20260903013817 | 87 | 166 | 0.0 | 0.0 | 0.00 | 0.00 | 0.00 | 63 | 1012.8 |